Weather History for Nairobi Wilson, Kenya

Change the Weather History Date:

Tuesday, January 22, 2013

  Actual Average Record
Temperature  
Mean Temperature 68 °F -  
Max Temperature 80 °F 74 °F 82 °F (2012)
Min Temperature 57 °F 61 °F 55 °F (2006)
Cooling Degree Days 4    
Growing Degree Days 18 (Base 50)    
Moisture  
Dew Point 53 °F    
Average Humidity 58    
Maximum Humidity 82    
Minimum Humidity 32    
Precipitation  
Precipitation 0.00 in - - ()
Sea Level Pressure  
Sea Level Pressure 30.15 in    
Wind  
Wind Speed 4 mph ()    
Max Wind Speed 16 mph    
Max Gust Speed -    
Visibility 6.2 miles    
Events      
Averages and records for this station are not official NWS values.
T = Trace of Precipitation, MM = Missing Value Source: Averaged Metar Reports

Daily Weather History Graph

Daily Weather History Graph

Search for Another Location

Airport:

Trip Planner

Search our weather history database for the weather conditions in past years. The results will help you decide how hot, cold, wet, or windy it might be!

Date:

Astronomy

Jan. 22, 2013 Rise Set
Actual Time 6:38 AM EAT 6:49 PM EAT
Civil Twilight 6:16 AM EAT 7:11 PM EAT
Nautical Twilight 5:51 AM EAT 7:37 PM EAT
Astronomical Twilight 5:25 AM EAT 8:03 PM EAT
Moon 3:04 PM EAT (1/22) 2:36 AM EAT (1/22)
Length of Visible Light 12h 54m
Length of Day
12h 10m
Waxing Gibbous, 80% of the Moon is Illuminated
Jan 22
Waxing Gibbous
Jan 27
Full
Feb 3
Last Quarter
Feb 10
New
Feb 17
First Quarter

Hourly Weather History & Observations

Time (EAT) Temp. Dew Point Humidity Pressure Visibility Wind Dir Wind Speed Gust Speed Precip Events Conditions
12:00 AM 64.4 °F 55.4 °F 73% 30.21 in - Calm Calm - N/A   Clear
1:00 AM 62.6 °F 55.4 °F 77% 30.15 in - Calm Calm - N/A   Clear
3:00 AM 60.8 °F 53.6 °F 77% 30.15 in - Calm Calm - N/A   Clear
4:00 AM 59.0 °F 53.6 °F 82% 30.12 in - Calm Calm - N/A   Clear
5:00 AM 59.0 °F 53.6 °F 82% 30.12 in - Calm Calm - N/A   Clear
6:00 AM 57.2 °F 51.8 °F 82% 30.15 in - Calm Calm - N/A   Clear
7:00 AM 59.0 °F 53.6 °F 82% 30.15 in - Calm Calm - N/A   Clear
8:00 AM 62.6 °F 55.4 °F 77% 30.18 in - Calm Calm - N/A   Clear
9:00 AM 68.0 °F 53.6 °F 60% 30.21 in - East 4.6 mph - N/A   Clear
10:00 AM 71.6 °F 48.2 °F 43% 30.21 in - East 11.5 mph - N/A   Clear
11:00 AM 73.4 °F 50.0 °F 44% 30.21 in - ENE 13.8 mph - N/A   Clear
12:00 PM 77.0 °F 50.0 °F 39% 30.18 in - NE 10.4 mph - N/A   Clear
1:00 PM 78.8 °F 51.8 °F 39% 30.15 in 6.2 mi ENE 11.5 mph - N/A   Mostly Cloudy
2:00 PM 80.6 °F 50.0 °F 34% 30.12 in 6.2 mi NE 16.1 mph - N/A   Mostly Cloudy
3:00 PM 80.6 °F 48.2 °F 32% 30.09 in 6.2 mi East 16.1 mph - N/A   Mostly Cloudy
4:00 PM 80.6 °F 51.8 °F 37% 30.09 in 6.2 mi East 16.1 mph - N/A   Scattered Clouds
5:00 PM 80.6 °F 51.8 °F 37% 30.09 in 6.2 mi East 11.5 mph - N/A   Scattered Clouds
6:00 PM 77.0 °F 53.6 °F 44% 30.12 in 6.2 mi ENE 9.2 mph - N/A   Scattered Clouds
7:00 PM 75.2 °F 53.6 °F 47% 30.12 in - ENE 6.9 mph - N/A   Clear
8:00 PM 71.6 °F 55.4 °F 57% 30.15 in - NE 9.2 mph - N/A   Clear
9:00 PM 69.8 °F 55.4 °F 60% 30.15 in - NE 11.5 mph - N/A   Clear
10:00 PM 68.0 °F 55.4 °F 64% 30.21 in - Calm Calm - N/A   Clear
11:00 PM 68.0 °F 55.4 °F 64% 30.21 in - Calm Calm - N/A   Clear